Temperature
8 8 8 8 9 10 10 9 10 11 12 13 12 12 13 15 15 15 16 17 17 17 17 17 17 17 17 17 17 17 17 16 16 16 15 15 15 15 15 15 15 15 15 14
7 8 8 9 10 10 10 10 10 11 12 13 11 12 12 13 14 15 16 16 17 16 16 16 16 16 17 17 17 16 16 16 16 16 15 15 15 15 15 15 15 15 14 14
7 8 10 10 10 10 10 10 10 10 11 12 11 11 11 12 14 15 15 16 16 16 16 15 15 16 16 16 16 16 15 15 15 15 15 15 15 15 14 14 14 14 14 14
8 9 10 10 10 10 10 11 11 10 10 9 11 9 10 11 11 12 14 15 15 15 15 14 14 14 15 15 15 14 14 14 14 14 14 14 14 14 14 14 14 14 14 14
7 8 9 9 10 10 10 11 10 10 9 9 10 9 9 10 10 11 11 13 14 14 14 13 13 13 13 13 13 13 13 13 13 13 13 13 13 13 13 13 13 13 13 13
7 7 8 9 10 11 11 10 9 8 8 8 8 8 8 9 10 10 10 12 13 13 13 12 12 12 12 12 12 12 12 12 12 12 12 12 12 12 12 12 12 13 13 13
7 7 7 8 9 10 10 9 8 8 8 7 8 8 9 10 10 10 10 11 12 12 12 12 11 11 11 11 11 11 11 11 11 11 11 11 11 11 11 11 11 11 11 11
7 7 7 7 9 9 9 8 7 7 7 6 8 7 9 9 10 11 11 12 12 12 12 11 11 11 11 10 10 10 10 10 10 10 10 9 9 9 10 10 10 10 10 10
7 7 7 7 7 8 8 8 8 7 7 7 7 7 9 10 9 9 10 11 11 11 11 11 11 10 10 10 9 9 9 9 8 8 8 8 8 8 8 8 9 9 9 9
7 7 7 7 8 7 8 8 7 7 7 7 8 8 8 9 8 8 8 10 11 11 11 10 10 10 9 9 9 8 8 8 8 8 8 8 8 8 8 8 8 8 8 8
7 7 7 7 7 8 7 8 8 7 6 7 7 8 9 8 8 8 9 10 11 11 10 10 10 9 9 8 8 7 7 7 7 7 7 7 7 7 7 7 7 7 7 7
7 6 6 6 7 8 8 8 7 7 7 6 6 7 10 8 8 9 9 10 11 11 10 10 9 8 8 7 7 6 6 6 6 6 6 6 6 6 6 6 6 6 6 6
7 6 6 6 6 7 7 7 8 7 6 5 5 8 9 8 8 10 10 10 10 10 10 9 8 8 7 7 6 6 5 5 5 5 5 5 5 5 5 5 5 5 5 5
7 6 6 6 7 6 6 7 7 6 6 5 6 8 9 9 8 9 10 10 10 10 9 9 8 7 7 6 5 5 4 4 4 4 4 4 4 4 4 4 4 5 5 5
7 6 6 6 7 6 6 6 7 6 6 6 7 8 9 9 9 9 10 10 9 9 9 8 8 7 6 5 4 4 4 3 3 3 3 3 3 3 3 3 4 4 4 4
6 6 6 6 7 6 6 6 6 7 7 7 7 8 9 10 10 9 9 9 9 9 9 8 7 6 5 4 4 3 3 2 2 2 3 3 3 2 2 2 3 3 3 3
5 5 5 5 6 6 5 6 7 6 7 7 7 8 9 8 8 9 10 10 10 10 9 8 7 6 5 4 3 2 2 2 2 2 2 2 2 2 2 2 2 2 2 2
5 5 4 4 5 5 7 8 7 7 7 7 7 8 8 9 10 11 11 11 10 10 9 8 7 6 5 4 3 2 2 1 1 1 1 1 1 1 1 1 1 1 1 1
6 5 4 4 4 5 7 8 7 6 6 7 7 7 8 9 9 9 10 10 10 10 9 8 7 6 4 3 3 2 2 1 1 1 1 1 1 1 1 1 1 1 1 1
6 6 5 5 5 5 7 9 9 8 7 8 8 7 8 7 7 7 10 9 9 9 8 7 6 5 4 3 3 2 2 2 1 1 1 1 1 1 1 1 1 1 1 1
6 6 5 5 5 5 7 8 9 7 7 8 8 8 8 7 8 10 10 9 8 8 7 6 6 5 4 4 3 3 3 2 2 2 1 1 1 1 1 1 1 1 0 0
5 5 5 5 5 6 8 8 7 7 8 8 9 9 9 9 9 9 9 8 8 7 7 6 5 5 4 4 3 3 3 3 2 2 2 1 1 1 1 1 1 0 0 -0
5 5 5 5 6 7 8 9 9 9 9 9 9 9 9 9 9 9 8 8 7 7 6 6 5 5 4 4 4 4 3 3 2 2 2 1 1 1 1 1 0 0 0 -0
5 5 5 5 6 7 8 9 9 9 9 9 9 9 9 9 9 8 8 7 7 6 6 6 5 5 5 4 4 3 3 3 2 2 2 1 1 1 1 0 0 -0 -0 -0
5 5 5 5 6 7 8 9 9 9 9 9 9 9 8 8 8 8 7 7 7 6 6 6 5 5 5 5 4 4 3 3 2 2 2 2 1 1 1 0 0 -0 -0 -1
4 4 5 5 6 5 7 8 8 8 8 8 8 8 8 8 8 7 7 7 7 6 6 6 5 5 5 4 4 4 3 3 2 2 2 2 1 1 1 0 -0 -0 -1 -1
Wind_Speed
7 6 10 12 8 6 9 8 8 6 6 9 10 9 9 7 6 9 8 7 6 4 2 4 5 6 7 7 7 5 5 3 2 1 2 3 4 5 4 6 11 12 12 13
5 7 7 8 7 8 10 9 8 4 4 8 8 11 9 9 7 8 9 9 8 7 5 5 5 6 7 6 6 6 5 4 2 1 1 2 3 3 4 4 7 10 12 13
6 5 9 9 8 7 6 9 9 6 3 3 4 6 10 10 8 7 7 7 8 10 10 7 6 6 7 7 6 5 5 5 4 2 1 1 1 2 2 2 3 5 9 11
2 4 9 10 9 7 5 7 9 8 7 4 7 5 8 10 11 11 10 8 9 8 9 8 8 7 6 5 5 6 6 6 5 4 3 2 0 2 3 3 4 5 6 8
2 5 10 10 7 8 5 4 7 8 7 3 3 4 8 5 11 15 12 10 9 9 10 9 8 8 6 5 5 6 6 7 6 6 5 3 2 2 3 3 4 5 4 5
2 2 3 4 3 6 5 8 8 6 4 4 7 6 8 7 10 9 10 10 10 10 9 8 7 8 6 5 6 6 7 6 6 6 6 5 4 4 4 4 5 4 4 4
4 3 2 1 6 3 6 8 4 2 2 7 5 6 10 9 10 10 13 12 11 10 10 9 9 7 6 6 5 6 6 6 6 7 6 5 4 4 3 4 4 5 4 4
6 4 0 2 3 6 5 8 8 7 7 5 4 9 9 8 8 7 11 12 11 10 9 9 8 8 6 6 6 6 6 5 6 6 6 6 5 3 3 4 4 4 4 4
6 5 2 2 2 5 6 4 5 5 4 3 6 7 8 2 2 7 11 11 11 10 9 9 8 7 7 6 5 5 5 5 6 6 5 6 6 5 5 5 4 4 4 5
5 6 4 2 3 3 2 5 5 5 6 5 6 6 6 6 8 9 12 11 10 9 9 8 7 6 6 6 5 5 5 5 4 5 5 5 6 6 5 5 6 6 6 6
4 6 5 3 6 8 4 4 5 5 4 5 5 7 6 11 12 13 12 10 10 10 9 8 7 6 6 6 5 5 5 5 5 5 5 5 6 6 6 6 7 6 7 7
4 4 4 2 1 1 4 6 7 6 5 5 4 7 6 8 9 10 10 9 9 9 8 8 8 7 6 5 5 4 4 4 4 4 5 5 5 6 7 7 7 7 7 8
6 6 6 2 2 3 5 6 7 4 3 5 5 7 6 2 8 9 10 9 9 9 8 7 7 6 5 5 4 4 4 4 4 4 5 5 6 6 6 7 7 7 7 8
5 4 5 9 6 7 7 8 10 8 6 6 8 7 4 3 8 9 9 10 10 9 9 8 7 6 5 5 4 4 3 3 4 4 5 6 6 6 6 6 7 7 7 8
5 4 3 3 2 6 7 9 13 13 11 9 8 8 9 10 11 11 10 10 10 9 9 9 8 6 6 5 4 4 3 3 4 4 5 5 5 6 6 6 7 7 8 9
3 4 2 1 2 4 5 9 13 15 13 11 7 8 8 7 7 8 9 11 11 10 10 9 9 8 7 6 5 4 3 3 4 4 5 4 5 5 6 6 7 8 8 8
3 5 3 2 1 1 7 12 15 10 10 11 14 11 4 6 10 12 11 12 11 10 10 10 9 8 7 6 6 5 4 4 4 4 4 4 4 5 6 6 7 7 8 8
6 5 4 2 1 7 8 4 9 12 12 12 9 8 9 9 9 8 9 11 11 10 11 10 9 8 7 6 6 6 5 5 5 4 4 4 4 5 6 6 6 7 6 7
6 6 4 3 3 8 9 5 7 8 8 12 14 10 8 6 4 3 5 8 9 10 9 9 9 8 7 7 7 7 6 5 4 4 4 4 4 5 5 5 5 5 5 5
4 5 4 3 3 6 6 3 3 4 6 7 12 12 9 9 7 6 6 6 7 8 9 9 9 7 8 8 8 8 7 6 5 4 4 4 4 5 5 4 4 3 4 4
4 3 5 4 4 7 7 2 5 3 6 5 6 9 10 10 6 4 8 7 7 8 9 10 10 8 8 8 8 8 7 6 5 5 5 4 4 4 4 4 3 3 3 3
8 6 6 5 6 8 4 5 6 7 3 2 2 5 7 6 6 7 8 8 9 9 8 9 9 8 8 9 9 8 8 6 6 6 5 5 4 4 4 4 3 3 3 2
7 8 6 8 9 6 4 7 5 3 2 1 3 4 7 6 5 7 7 8 9 9 9 9 8 8 8 9 9 10 8 7 7 7 6 5 5 4 4 4 4 3 2 2
4 3 3 5 7 6 6 5 3 4 4 3 4 5 6 5 5 6 6 8 9 9 10 9 9 10 10 9 9 9 9 9 8 7 7 6 5 4 4 4 4 3 3 3
5 2 3 6 6 4 5 4 4 3 3 4 4 4 5 6 5 6 6 8 9 9 10 10 11 11 11 10 10 9 10 10 9 8 7 6 6 6 5 4 4 4 4 5
5 5 5 6 5 4 6 5 3 4 4 5 5 3 3 4 5 5 6 6 7 9 10 10 11 11 11 11 10 10 11 11 10 8 7 6 5 5 5 4 2 4 4 4
Wind_Direction
171 164 186 189 172 138 135 140 169 194 187 175 203 218 232 245 232 224 217 208 196 183 140 97 89 95 91 77 79 77 77 54 72 124 184 213 230 238 239 237 237 233 229 225
149 189 178 153 160 136 145 154 179 211 211 187 211 232 236 242 231 220 213 208 193 159 136 103 85 78 83 81 73 66 59 50 52 111 194 211 231 244 244 250 251 246 240 235
156 166 159 162 175 161 165 173 179 183 152 164 168 256 246 247 241 237 227 211 186 169 158 139 115 98 87 77 68 60 45 39 33 21 51 20 25 344 319 281 270 265 259 250
135 157 162 170 184 165 192 203 184 167 147 199 175 233 259 231 236 232 221 203 184 167 153 146 135 118 102 88 71 56 43 40 31 32 45 51 26 267 268 275 278 288 280 269
151 156 164 180 187 163 192 182 156 157 147 146 181 202 274 241 229 229 218 201 184 168 157 152 145 132 113 93 72 54 48 40 31 35 40 43 13 294 294 302 303 301 298 290
95 72 127 164 170 165 136 91 70 63 95 207 206 190 266 231 219 219 205 192 178 166 156 144 131 121 105 84 65 55 52 38 26 28 30 32 11 343 338 333 325 315 307 302
84 43 22 115 135 135 134 119 105 122 209 239 204 204 247 243 227 208 189 178 172 163 152 142 136 128 115 90 70 60 57 39 24 23 19 11 1 350 335 323 318 317 316 312
143 163 143 39 147 160 171 147 159 177 201 249 217 227 250 265 256 197 167 161 160 159 154 148 144 135 122 103 83 71 63 45 26 21 11 9 5 359 342 331 323 320 314 307
152 151 99 75 60 129 144 164 158 138 160 208 244 264 296 333 126 146 148 152 160 160 154 147 139 132 124 108 93 84 73 51 28 15 11 19 12 9 358 351 352 346 339 335
128 133 146 108 88 33 124 142 122 140 170 226 257 247 239 220 192 170 163 163 162 154 148 144 140 133 121 111 97 80 72 58 31 22 21 27 12 7 4 9 8 1 356 0
117 130 143 155 193 183 159 166 169 167 191 192 240 260 227 210 194 180 174 168 162 159 157 153 144 132 120 108 97 83 66 52 33 27 28 26 15 12 17 22 17 14 16 17
143 119 136 156 0 185 192 192 173 178 215 204 213 267 286 230 189 170 168 167 163 160 156 150 143 132 123 113 102 87 67 50 36 37 39 31 24 25 29 27 22 24 28 26
141 127 127 137 256 208 212 209 198 178 164 187 195 264 327 106 154 164 163 164 160 154 150 145 142 140 135 125 111 93 70 51 45 51 48 38 31 31 32 30 28 32 36 36
122 133 173 190 204 179 194 202 194 184 202 213 218 248 282 178 168 171 171 168 164 163 160 156 154 150 144 132 118 102 79 60 61 61 57 48 38 37 39 39 39 41 43 44
106 148 191 229 187 164 194 199 197 205 209 204 222 219 226 208 190 182 175 168 166 170 172 170 165 161 152 141 129 116 98 76 74 72 64 55 49 49 50 49 47 48 49 50
103 136 129 296 230 202 233 223 212 217 219 225 240 249 242 214 184 177 176 175 181 186 183 174 167 164 162 156 146 129 115 99 90 83 72 64 61 59 57 57 56 56 54 53
134 131 134 257 284 352 261 225 213 211 211 204 225 232 222 185 187 189 189 188 192 190 181 175 172 167 164 160 149 141 131 115 102 93 84 76 74 70 63 65 63 59 55 55
138 128 136 164 106 243 246 232 203 216 227 211 218 213 204 205 201 195 189 190 194 184 175 171 163 159 157 151 142 135 129 119 110 103 96 92 89 84 78 73 68 63 61 60
148 145 152 169 234 276 285 251 185 196 248 221 218 212 205 195 151 235 213 193 188 176 164 160 158 155 154 152 146 138 131 127 126 123 117 107 101 99 93 87 79 72 74 69
142 141 157 190 230 252 264 286 171 139 266 244 210 203 181 155 182 227 195 163 150 143 144 148 148 147 154 156 149 145 146 150 152 143 130 120 117 117 113 109 100 91 90 88
161 180 192 205 245 267 260 244 117 175 257 299 204 187 172 182 196 177 146 141 142 140 145 149 153 159 165 159 154 155 159 168 159 144 137 133 133 135 134 129 126 125 120 112
176 188 195 186 220 255 253 150 186 226 279 355 123 154 159 157 131 136 147 148 150 149 151 157 162 168 167 163 162 167 176 171 157 151 151 152 157 160 152 149 149 150 152 149
195 194 191 200 220 245 223 210 229 200 188 165 111 119 128 133 152 159 164 165 167 166 168 168 170 171 174 175 174 180 183 169 162 162 168 168 168 170 166 170 174 176 180 184
259 198 199 247 261 261 255 242 241 204 189 160 136 134 138 149 166 172 174 178 180 180 180 176 175 183 190 189 188 187 177 172 169 176 179 176 172 172 172 178 178 176 183 190
249 208 223 252 272 299 287 246 228 212 168 143 132 147 157 156 174 186 189 191 192 190 187 185 191 197 199 192 194 189 178 175 179 184 185 183 180 172 173 178 188 185 201 195
217 203 209 237 238 229 258 267 245 201 190 174 157 146 143 166 187 192 202 201 196 195 190 193 199 202 200 195 198 193 184 181 181 187 189 185 179 178 176 176 193 225 212 212
Height
1481 1486 1487 1488 1491 1494 1499 1505 1508 1507 1504 1508 1511 1512 1511 1509 1511 1511 1511 1513 1515 1516 1518 1520 1522 1523 1525 1526 1528 1529 1530 1531 1532 1533 1534 1535 1535 1537 1538 1539 1540 1540 1541 1541
1483 1485 1485 1488 1491 1493 1497 1504 1507 1506 1504 1507 1511 1511 1508 1507 1507 1507 1508 1509 1511 1513 1515 1517 1518 1520 1521 1523 1524 1525 1526 1527 1528 1529 1530 1530 1531 1532 1532 1533 1534 1535 1535 1536
1480 1482 1483 1487 1491 1495 1498 1502 1506 1507 1506 1507 1512 1513 1509 1504 1504 1504 1505 1505 1507 1509 1511 1513 1515 1517 1518 1519 1520 1521 1522 1523 1523 1524 1525 1525 1526 1526 1527 1527 1528 1528 1529 1529
1481 1481 1483 1487 1491 1494 1500 1497 1501 1505 1511 1516 1513 1522 1509 1503 1502 1500 1500 1501 1503 1505 1508 1510 1512 1514 1515 1516 1517 1518 1518 1518 1519 1519 1519 1520 1520 1520 1521 1521 1521 1522 1522 1522
1482 1481 1483 1488 1490 1492 1496 1494 1498 1504 1511 1516 1515 1520 1510 1501 1500 1495 1495 1496 1499 1502 1505 1507 1509 1511 1512 1513 1514 1514 1514 1515 1515 1515 1515 1515 1515 1515 1515 1515 1515 1515 1515 1515
1483 1484 1485 1487 1489 1490 1493 1498 1503 1509 1513 1520 1516 1520 1511 1500 1492 1489 1489 1492 1495 1499 1502 1505 1507 1508 1510 1510 1511 1511 1511 1511 1511 1511 1511 1510 1510 1510 1510 1509 1509 1509 1509 1509
1485 1487 1487 1487 1490 1492 1493 1503 1515 1518 1522 1521 1512 1512 1501 1487 1483 1482 1483 1487 1492 1496 1499 1502 1504 1506 1507 1508 1508 1508 1508 1508 1508 1507 1507 1506 1505 1505 1504 1504 1503 1503 1502 1502
1486 1489 1489 1489 1488 1491 1494 1499 1512 1518 1522 1520 1510 1508 1492 1481 1477 1477 1480 1484 1489 1494 1497 1500 1502 1504 1505 1505 1505 1505 1505 1505 1504 1503 1503 1502 1501 1500 1500 1499 1498 1498 1497 1496
1483 1487 1490 1489 1490 1490 1495 1499 1500 1509 1514 1516 1510 1499 1487 1479 1477 1477 1480 1484 1487 1491 1495 1498 1500 1502 1502 1503 1503 1502 1502 1501 1501 1500 1499 1498 1497 1497 1496 1495 1494 1493 1492 1492
1479 1486 1489 1490 1490 1493 1493 1495 1503 1509 1512 1511 1502 1497 1490 1480 1479 1478 1480 1482 1486 1490 1493 1496 1498 1499 1500 1500 1500 1499 1499 1498 1497 1497 1496 1495 1494 1493 1492 1492 1491 1490 1489 1488
1479 1484 1489 1491 1491 1491 1495 1496 1498 1503 1507 1506 1504 1494 1476 1475 1474 1475 1477 1480 1484 1488 1492 1494 1496 1497 1497 1497 1497 1496 1495 1495 1494 1493 1493 1492 1491 1490 1489 1488 1487 1486 1485 1484
1477 1483 1488 1490 1490 1489 1490 1491 1495 1501 1503 1505 1506 1494 1470 1470 1470 1474 1477 1481 1484 1488 1490 1492 1494 1494 1494 1494 1493 1493 1492 1491 1490 1490 1489 1489 1488 1487 1486 1485 1484 1483 1482 1481
1475 1483 1489 1492 1495 1492 1490 1489 1489 1493 1498 1504 1507 1490 1470 1468 1470 1473 1477 1480 1483 1486 1489 1490 1491 1491 1491 1491 1490 1489 1489 1488 1487 1487 1486 1486 1485 1484 1483 1483 1482 1481 1480 1479
1472 1480 1485 1484 1482 1484 1486 1486 1486 1491 1494 1496 1493 1482 1473 1472 1472 1474 1476 1479 1481 1484 1486 1487 1488 1488 1488 1488 1487 1486 1485 1485 1484 1484 1483 1483 1482 1482 1481 1481 1480 1479 1478 1477
1472 1479 1481 1479 1477 1481 1481 1480 1481 1484 1484 1487 1480 1477 1471 1469 1469 1471 1473 1477 1479 1481 1483 1484 1485 1485 1485 1485 1484 1483 1483 1482 1482 1481 1481 1481 1480 1480 1479 1479 1478 1478 1477 1476
1473 1478 1480 1480 1477 1478 1478 1476 1476 1476 1476 1477 1476 1473 1466 1465 1467 1470 1472 1474 1476 1478 1479 1481 1482 1482 1482 1482 1481 1481 1481 1480 1480 1479 1479 1479 1479 1478 1478 1478 1477 1476 1476 1475
1474 1479 1484 1486 1479 1478 1479 1468 1468 1469 1467 1469 1469 1465 1463 1464 1465 1466 1468 1471 1472 1474 1476 1477 1478 1479 1479 1480 1479 1479 1479 1479 1478 1478 1478 1478 1478 1477 1477 1477 1477 1477 1476 1475
1473 1479 1485 1487 1483 1486 1465 1457 1458 1459 1458 1459 1458 1458 1459 1459 1461 1463 1465 1467 1469 1471 1473 1474 1475 1476 1477 1477 1478 1478 1478 1478 1477 1477 1477 1477 1477 1477 1477 1478 1477 1477 1477 1476
1468 1475 1483 1485 1485 1476 1462 1454 1455 1458 1456 1451 1452 1453 1455 1457 1460 1461 1462 1464 1466 1468 1470 1471 1473 1474 1475 1475 1476 1476 1477 1477 1477 1477 1477 1477 1478 1478 1478 1478 1478 1478 1478 1477
1467 1470 1477 1478 1479 1475 1458 1451 1449 1454 1454 1444 1445 1448 1451 1455 1460 1459 1459 1461 1463 1465 1467 1469 1470 1472 1473 1474 1475 1475 1476 1476 1476 1477 1477 1478 1478 1479 1479 1479 1479 1479 1478 1478
1469 1471 1475 1477 1474 1466 1454 1450 1451 1459 1452 1443 1441 1443 1447 1450 1453 1455 1456 1458 1460 1463 1465 1467 1468 1470 1471 1473 1474 1475 1475 1476 1476 1477 1477 1478 1479 1479 1479 1479 1479 1479 1478 1478
1467 1470 1472 1472 1472 1467 1449 1450 1452 1450 1445 1442 1441 1442 1445 1448 1451 1452 1454 1456 1458 1460 1463 1465 1466 1468 1470 1471 1473 1474 1475 1476 1476 1477 1477 1478 1479 1479 1479 1479 1479 1479 1478 1478
1461 1461 1462 1462 1459 1450 1447 1447 1446 1445 1445 1444 1443 1444 1446 1448 1450 1452 1454 1455 1457 1459 1461 1463 1465 1467 1468 1470 1471 1473 1474 1474 1475 1476 1477 1478 1478 1479 1479 1479 1479 1478 1477 1477
1456 1454 1456 1455 1450 1447 1445 1445 1445 1445 1445 1445 1445 1446 1447 1448 1450 1451 1453 1454 1456 1457 1459 1461 1463 1464 1466 1468 1469 1471 1472 1473 1474 1475 1476 1476 1477 1477 1478 1478 1477 1477 1476 1475
1454 1453 1453 1451 1447 1445 1443 1443 1443 1444 1444 1445 1445 1446 1447 1448 1449 1451 1452 1453 1454 1455 1457 1458 1460 1461 1463 1465 1467 1468 1470 1471 1472 1473 1474 1474 1475 1476 1476 1476 1476 1475 1474 1473
1451 1451 1452 1449 1445 1445 1443 1442 1442 1443 1443 1443 1444 1445 1446 1447 1448 1449 1449 1450 1451 1453 1454 1455 1456 1458 1460 1461 1463 1465 1466 1468 1469 1470 1471 1472 1473 1473 1474 1474 1474 1473 1472 1471